Location: Central Coast NSW, Australia
(33.2407°S, 151.4316°E)
Time: 12:33:38
(UTC+10:00)

ISS - Visible Passes

Search period start: 18 August 2019 00:00
Search period end: 28 August 2019 00:00
Orbit: 410 x 421 km, 51.6° (Epoch: 18 August)

Date Brightness Start Highest point End Pass type
(mag) Time Alt. Az. Time Alt. Az. Time Alt. Az.
18 Aug -1.6 19:09:48 10° NNW 19:10:57 19° N 19:10:57 19° N visible
19 Aug -2.2 18:21:49 10° N 18:24:19 19° NE 18:24:59 18° ENE visible
19 Aug -0.2 19:57:48 10° WNW 19:57:55 11° WNW 19:57:55 11° WNW visible
20 Aug -3.2 19:08:42 10° WNW 19:11:51 57° WSW 19:11:51 57° WSW visible
21 Aug -3.8 18:19:55 10° NW 18:23:16 69° NE 18:25:40 18° SE visible
21 Aug -0.2 19:58:32 10° WSW 19:58:35 10° WSW 19:58:35 10° WSW visible
22 Aug -1.6 19:08:40 10° W 19:11:19 21° SW 19:12:17 18° S visible
23 Aug -2.3 18:19:16 10° WNW 18:22:24 34° SW 18:25:33 10° SSE visible
25 Aug -1.0 18:19:43 10° WSW 18:21:43 15° SSW 18:23:44 10° S visible
